Location: Rio Negrinho
(26.2394°S, 49.4999°W)
Time: 21:27:36
(UTC+00:00)

Cosmos 494 Rocket - Visible Passes

Search period start: 29 September 2020 00:00
Search period end: 09 October 2020 00:00
Orbit: 742 x 771 km, 74.1° (Epoch: 29 September)

Date Brightness Start Highest point End Pass type
(mag) Time Alt. Az. Time Alt. Az. Time Alt. Az.
29 Sep 6.3 23:10:30 12° SSE 23:10:30 12° SSE 23:10:49 10° SSE visible
30 Sep 4.8 22:20:56 10° NNE 22:25:20 28° E 22:29:44 10° SE visible
01 Oct 6.1 00:02:55 10° WNW 00:07:00 23° WSW 00:11:06 10° SSW visible
01 Oct 5.6 21:42:40 10° NE 21:45:04 13° E 21:47:28 10° ESE visible
01 Oct 4.9 23:21:22 10° NW 23:26:22 46° WSW 23:31:23 10° S visible
02 Oct 3.9 22:40:39 10° NNW 22:45:51 84° ENE 22:51:05 10° SSE visible
03 Oct 4.4 22:00:38 10° N 22:05:27 40° E 22:10:18 10° SSE visible
03 Oct 6.7 23:44:05 10° WNW 23:47:19 16° WSW 23:50:34 10° SSW visible
04 Oct 5.7 23:01:58 10° NW 23:06:37 33° WSW 23:11:18 10° S visible
05 Oct 7.2 07:56:37 10° SE 07:59:04 13° ESE 08:01:31 10° E visible
05 Oct 4.3 22:20:53 10° NNW 22:26:03 69° WSW 22:31:16 10° S visible
06 Oct 4.1 21:40:31 10° N 21:45:37 57° ENE 21:50:42 10° SSE visible
06 Oct 7.3 23:25:58 10° W 23:27:41 11° WSW 23:29:23 10° SW visible
07 Oct 5.7 08:15:17 10° S 08:20:05 38° ESE 08:24:50 10° NE visible
07 Oct 6.5 22:42:47 10° WNW 22:46:54 24° WSW 22:51:03 10° SSW visible
08 Oct 6.9 07:35:48 10° SSE 07:39:25 19° ESE 07:42:59 10° ENE visible
08 Oct 5.1 22:01:17 10° NNW 22:06:17 48° WSW 22:11:18 10° S visible
